Tracking 19709 objects as of 17-Jun-2019
HD Live streaming from Space Station
objects crossing your sky now

IRIDIUM 46


IRIDIUM 46 is no longer on orbit
IRIDIUM 46 is classified as:


NORAD ID: 24905
Int'l Code: 1997-043C
Perigee: N/A
Apogee: N/A
Inclination: N/A
Period: N/A
Semi major axis: N/A
RCS: N/A
Launch date: August 21, 1997
Source: United States (US)
Launch site: AIR FORCE WESTERN TEST RANGE (AFWTR)
Decay date: 2019-05-11
aabbcc
Your satellite tracking list
Your tracking list is empty




NASA's NSSDC Master Catalog

Two Line Element Set (TLE):
1 24905U 97043C   19131.79387008  .70300962 -16113-5  50203-3 0  9998
2 24905  86.3340 285.7280 0006996 272.9672  87.2952 16.53345512142581
Source of the keplerian elements: AFSPC